Location: *
(43.7000°S, 168.7000°W)
Time: 15:05:28
(UTC+00:00)

CZ-4C R/B - Pass Details

Date: 07 July 2020
Orbit: 632 x 1369 km, 63.4° (Epoch: 04 August)

Event Time Altitude Azimuth Distance (km) Brightness Sun altitude
Exits shadow 14:41:31 36° 81° (E) 1,835 4.1 -43.6°
Drops below altitude 10° 14:47:06 10° 129° (SE) 3,005 5.5 -42.6°
Sets 14:49:48 0° 136° (SE) 3,860 6.2 -42.1°
